This is the latest recevied weather packets stored in our database for station/object W1TG-2. If no packets are shown the sender has not sent any weather packets the latest 10 day(s).
| Time | Temp. | Humidity | Pressure | Rain* | Wind** | Luminosity | Snow |
|---|---|---|---|---|---|---|---|
| 1787842444 | 25° C | 80% | 1017.5 hPa | 0 mm | - | - | - |
| 1787842084 | 24.44° C | 80% | 1017.4 hPa | 0 mm | - | - | - |
| 1787841723 | 25° C | 80% | 1017.4 hPa | 0 mm | - | - | - |
| 1787841363 | 25° C | 78% | 1017.4 hPa | 0 mm | - | - | - |
| 1787841004 | 25° C | 80% | 1017.4 hPa | 0 mm | - | - | - |
| 1787840643 | 25° C | 80% | 1017.4 hPa | 0 mm | - | - | - |
| 1787840283 | 25° C | 79% | 1017.4 hPa | 0 mm | - | - | - |
| 1787839924 | 25° C | 78% | 1017.5 hPa | 0 mm | - | - | - |
| 1787839564 | 25° C | 80% | 1017.4 hPa | 0 mm | - | - | - |
| 1787839203 | 24.44° C | 81% | 1017.4 hPa | 0 mm | - | - | - |
| 1787838844 | 24.44° C | 80% | 1017.4 hPa | 0 mm | - | - | - |
| 1787838483 | 24.44° C | 81% | 1017.4 hPa | 0 mm | - | - | - |
| 1787838123 | 24.44° C | 82% | 1017.3 hPa | 0 mm | - | - | - |
| 1787837763 | 23.89° C | 81% | 1017.2 hPa | 0 mm | - | - | - |
| 1787837404 | 23.33° C | 83% | 1017.4 hPa | 0 mm | - | - | - |
| 1787837043 | 23.33° C | 82% | 1017.4 hPa | 0 mm | - | - | - |
| 1787836683 | 22.78° C | 83% | 1017.3 hPa | 0 mm | - | - | - |
| 1787836324 | 22.78° C | 82% | 1017.4 hPa | 0 mm | - | - | - |
| 1787835964 | 22.78° C | 84% | 1017.4 hPa | 0 mm | - | - | - |
| 1787835603 | 22.22° C | 86% | 1017.4 hPa | 0 mm | - | - | - |
| 1787835244 | 21.67° C | 87% | 1017.4 hPa | 0 mm | - | - | - |
| 1787834883 | 21.11° C | 89% | 1017.6 hPa | 0 mm | - | - | - |
| 1787834523 | 21.11° C | 89% | 1017.6 hPa | 0 mm | - | - | - |
| 1787834164 | 20.56° C | 90% | 1017.5 hPa | 0 mm | - | - | - |
| 1787833804 | 20.56° C | 94% | 1017.5 hPa | 0 mm | - | - | - |
* Rain latest hour (hover to see other rain measurements)
** Current wind speed in m/s (hover to see current wind gust speed)